Regional Weather Roundup
Issued by NWS

Home | Current Version | Previous Version | Text Only | Print | Product List | Glossary On
Versions: 1 2 3 4 5 6 7 8 9 10 11 12 13 14 15 16 17 18 19 20 21 22 23 24 25 26 27 28 29 30 31 32 33 34 35 36 37 38 39 40 41 42 43 44 45 46 47 48 49 50
116
ASUS43 KDMX 090708
RWRIA

WEATHER ROUNDUP FOR IOWA
NATIONAL WEATHER SERVICE DES MOINES IA
100 AM CST TUE FEB 09 2016

NOTE: "FAIR" INDICATES FEW OR NO CLOUDS BELOW 12,000 FEET WITH NO
SIGNIFICANT WEATHER AND/OR OBSTRUCTIONS TO VISIBILITY.

* - THESE STATIONS ARE NOT NWS STATIONS...THUS NOT UNDER NWS
QUALITY CONTROL.  THEY ALSO DO NOT REPORT WEATHER SUCH
AS PRECIPITATION OR FOG.

IAZ001>003-012>014-020>022-031>034-043>046-090800-
   NORTHWEST IOWA

CITY           SKY/WX    TMP DP  RH WIND       PRES   REMARKS
CARROLL *      CLOUDY    10   5  79 N25       30.05R WCI -10
CHEROKEE *     MOCLDY    10   5  79 N14G22    30.09S WCI  -5
DENISON *      FLURRIES  14  10  85 N17G26    30.06R WCI  -3
LE MARS *      CLOUDY    14  10  85 N14G20    30.13S WCI  -1
ORANGE CITY *  MOCLDY    10   7  85 N15G24    30.08S WCI  -6
SHELDON *      MOCLDY     9   3  78 N23G33    30.07S HAZE    WCI -12
SIOUX CITY     CLEAR     20   9  62 N30G39    30.10S WCI   1
SPENCER        BLWGSNOW   9   2  73 N33G41    30.05S VSB 1   WCI -15
STORM LAKE *   CLOUDY     9   5  85 N25G33    30.05R WCI -13
$$

IAZ055>058-069>071-079>083-090>094-090800-
   SOUTHWEST IOWA

CITY           SKY/WX    TMP DP  RH WIND       PRES   REMARKS
ATLANTIC *     MOCLDY    18   9  68 N23G33    30.05R WCI   0
AUDUBON *      PTCLDY    14   9  79 N21       30.04R WCI  -4
CLARINDA *     CLEAR     23  12  63 N22G29    30.07S WCI   8
COUNCIL BLFS * CLEAR     21  10  63 N23G31    30.06S WCI   5
CRESTON *      FLURRIES  16   9  73 N30G39    30.01S WCI  -4
HARLAN  *      FLURRIES  18  10  73 N30G40    30.08R WCI  -2
LAMONI         CLOUDY    17   8  67 N22G31    30.00S WCI   0
RED OAK *      CLEAR     21  12  68 N18G28    30.07R WCI   6
SHENANDOAH *   CLEAR     25  12  58 NW18G26   30.08S WCI  11
$$

IAZ047>049-059>061-072>074-084-090800-
   CENTRAL IOWA

CITY           SKY/WX    TMP DP  RH WIND       PRES   REMARKS
AMES           LGT SNOW  12   6  77 N24G30    30.00S WCI  -8
ANKENY *       FLURRIES  14   9  79 NW18G26   30.00F WCI  -3
BOONE *        FLURRIES  10   5  79 NW24G31   29.99R WCI -10
CHARITON *     CLOUDY    16   7  67 NW20G26   29.98S WCI  -1
DES MOINES     FLURRIES  15   7  70 NW17G24   30.00F WCI  -1
GRINNELL*      FLURRIES  14   9  79 NW21G31   29.94F WCI  -4
KNOXVILLE *    MOCLDY    16   7  67 N20G31    29.96F WCI  -1
MARSHALLTOWN   LGT SNOW  12   7  80 NW22      29.95S WCI  -7
NEWTON *       FLURRIES  14   7  73 NW23G32   29.96S WCI  -5
$$

IAZ004>006-015-016-023>025-035-036-090800-
   NORTH CENTRAL IOWA

CITY           SKY/WX    TMP DP  RH WIND       PRES   REMARKS
ALGONA *       FLURRIES  10   5  79 N20G36    30.00R WCI  -8
CLARION *      CLOUDY    10   3  72 NW22G30   29.98S WCI  -9
ESTHERVILLE    CLOUDY     8   3  80 N26G38    30.03S HAZE    WCI -14
FORT DODGE *   CLOUDY    10   1  67 N17G24    30.02R WCI  -7
MASON CITY     LGT SNOW  11   7  84 N25G31    29.95S FOG     WCI -10
FOREST CITY *  LGT SNOW  10   7  85 NW18G24   29.95S WCI  -8
WEBSTER CITY * CLOUDY    10   5  79 NW26G33   29.98R WCI -11
IOWA FALLS *   LGT SNOW  12   7  79 NW24      29.96S WCI  -8
$$

IAZ007>011-017>019-026>030-037>042-050>054-066-090800-
   NORTHEAST IOWA

CITY           SKY/WX    TMP DP  RH WIND       PRES   REMARKS
CEDAR RAPIDS   LGT SNOW  15  12  88 NW17      29.89S FOG     WCI  -1
CHARLES CITY * CLOUDY    12   9  85 NW15      29.92R WCI  -4
CLINTON *      LGT SNOW  15  11  83 NW15      29.85R FOG     WCI   0
DECORAH *      FLURRIES  12   7  79 N15       29.87R WCI  -4
DUBUQUE        CLOUDY    13   8  81 N14       29.82S WCI  -2
MONTICELLO *   MOCLDY    16   9  73 NW13      29.87S WCI   2
OELWEIN *      LGT SNOW  14   9  79 N18G25    29.89S WCI  -3
WATERLOO       LGT SNOW  13   7  77 NW22G31   29.91S WCI  -6
$$

IAZ064-065-067-068-078-090800-
   EAST CENTRAL IOWA

CITY           SKY/WX    TMP DP  RH WIND       PRES   REMARKS
DAVENPORT      FLURRIES  16  10  77 NW17      29.85S WCI   0
IOWA CITY      LGT SNOW  16  11  80 NW14      29.92S WCI   2
MT. PLEASANT * LGT SNOW  19  14  79 NW12G22   29.91S WCI   7
MUSCATINE *    LGT SNOW  18  12  79 NW15      29.91S WCI   3
QUAD CITIES    LGT SNOW  17  11  77 NW15      29.86R WCI   2
$$

IAZ062-063-075>077-085>089-095>099-090800-
   SOUTHEAST IOWA

CITY           SKY/WX    TMP DP  RH WIND       PRES   REMARKS
BURLINGTON     LGT SNOW  17  13  84 NW14G22   29.89S FOG     WCI   3
FAIRFIELD *    LGT SNOW  16   9  73 NW24      29.91F WCI  -3
FORT MADISON * LGT SNOW  18  14  86 NW14      29.90F WCI   4
KEOKUK *       LGT SNOW  18  14  86 NW17G25   29.91S WCI   2
OSKALOOSA *    FLURRIES  16  10  79 NW18      29.95S WCI  -1
CENTERVILLE *  CLOUDY    16   9  73 NW22G28   29.97S WCI  -2
OTTUMWA        FLURRIES  15   9  76 NW24      29.95S WCI  -4
WASHINGTON *   LGT SNOW  16  12  86 NW15G22   29.92F WCI   1
$$

ABBREVIATIONS USED IN REMARKS
   TC - TEMPERATURES IN CELSIUS
  WCI - WIND CHILL INDEX
   HX - HEAT INDEX
  VSB - VISIBILITY
$$





USA.gov is the U.S. government's official web portal to all federal, state and local government web resources and services.